Location: Melbourne
(37.8170°S, 144.9670°E)
Time: 04:21:27
(UTC+10:00)

Vanguard 1 Rocket - Visible Passes

Search period start: 24 September 2014 00:00
Search period end: 04 October 2014 00:00
Orbit: 653 x 4227 km, 34.3° (Epoch: 17 September)

Date Brightness Start Highest point End Pass type
(mag) Time Alt. Az. Time Alt. Az. Time Alt. Az.
24 Sep 10.6 00:00:20 10° W 00:16:54 48° W 00:16:54 48° W visible
24 Sep 9.7 02:59:53 33° NNE 02:59:53 33° NNE 03:04:53 10° NE visible
24 Sep 10.2 05:17:16 10° WNW 05:18:25 10° WNW 05:20:01 10° NW visible
24 Sep 10.5 20:14:06 10° NW 20:38:35 67° NNE 20:53:08 33° E visible
24 Sep 10.1 22:45:05 10° W 23:10:30 79° NNW 23:10:30 79° NNW visible
25 Sep 10.5 01:19:39 10° W 01:53:43 17° NE 01:55:14 10° NE visible
25 Sep 9.9 04:11:06 23° NW 04:11:06 23° NW 04:16:23 10° N visible
25 Sep 10.7 19:02:16 10° NW 19:24:08 56° NNE 19:46:37 13° E visible
25 Sep 10.2 21:30:43 10° WNW 21:56:58 79° N 22:03:58 59° ENE visible
26 Sep 10.5 00:03:56 10° W 00:21:19 51° W 00:21:19 51° W visible
26 Sep 10.1 03:05:00 23° N 03:05:00 23° N 03:08:15 10° NNE visible
26 Sep 10.5 20:17:27 10° WNW 20:41:55 72° NNE 20:57:20 32° E visible
26 Sep 10.1 22:48:44 10° W 23:14:40 79° NNW 23:14:40 79° NNW visible
27 Sep 10.8 01:23:15 10° WSW 01:58:54 10° NE 01:32:00 27° W visible
27 Sep 10.2 04:16:18 15° NNW 04:16:18 15° NNW 04:18:35 10° NNW visible
27 Sep 10.6 19:05:22 10° NW 19:27:12 63° NNE 19:50:35 13° E visible
27 Sep 10.3 21:34:21 10° WNW 22:00:34 81° N 22:07:55 58° ENE visible
28 Sep 10.5 00:07:33 10° W 00:25:14 51° W 00:25:14 51° W visible
28 Sep 10.4 03:10:14 14° N 03:10:14 14° N 03:11:20 10° NNE visible
28 Sep 10.5 20:20:59 10° WNW 20:45:20 77° NNE 21:01:05 32° E visible
28 Sep 10.2 22:52:25 10° W 23:18:24 78° NNW 23:18:24 78° NNW visible
29 Sep 11.0 01:26:54 10° WSW 01:35:43 26° W 01:35:43 26° W visible
29 Sep 10.6 19:08:43 10° NW 19:30:24 68° NNE 19:54:10 14° E visible
29 Sep 10.3 21:38:04 10° W 22:04:11 81° N 22:11:28 59° ENE visible
30 Sep 10.6 00:11:10 10° W 00:28:47 49° W 00:28:47 49° W visible
30 Sep 10.5 20:24:39 10° WNW 20:48:51 80° N 21:04:29 33° E visible
30 Sep 10.2 22:56:07 10° W 23:21:47 74° NNW 23:21:47 74° NNW visible
01 Oct 11.2 01:30:39 10° WSW 01:39:06 24° W 01:39:06 24° W visible
01 Oct 10.6 19:12:15 10° WNW 19:33:44 73° NNE 19:57:27 15° E visible
01 Oct 10.3 21:41:49 10° W 22:07:46 80° N 22:14:45 60° ENE visible
02 Oct 10.6 00:14:49 10° WSW 00:32:03 46° WNW 00:32:03 46° WNW visible
02 Oct 10.5 20:28:25 10° W 20:52:25 81° N 21:07:40 35° E visible
02 Oct 10.3 22:59:48 10° W 23:24:57 69° NW 23:24:57 69° NW visible
03 Oct 11.3 01:34:36 10° WSW 01:42:15 22° W 01:42:15 22° W visible
03 Oct 10.6 19:15:57 10° WNW 19:37:10 77° NNE 20:00:33 16° E visible
03 Oct 10.3 21:45:36 10° W 22:11:19 78° NNW 22:17:50 61° NE visible
